This demonstration page uses our WeatherBlox Daily Observations layout. Learn more.

Left ArrowRight Arrow

Hourly Observations for May 19, 2018

Temp ( °F °C ) Dew Point ( °F °C ) Humidity (%) Winds ( mph kmh ) Pressure ( in mb ) Visibility ( mi km ) Precip ( " mm )
12:15 am 00:15 Cloudy with Nearby Thunderstorms 61 16.1 60 15.3 95 95 SE 9 15 29.88 1012 5 8.0467 0.07 1.778
12:35 am 00:35 Cloudy with Thunderstorms 61 16 59 15.2 95 95 SSE 8 13 29.88 1012 7 11.26538 0.15 3.81
12:55 am 00:55 Cloudy 60 15.8 60 15.4 97 97 SSE 8 13 29.88 1012 5 8.0467 0.24 6.096
1:15 am 01:15 Cloudy with Thunderstorms 60 15.7 60 15.6 99 99 SSE 8 13 29.88 1012 5 8.0467 0.05 1.27
1:35 am 01:35 Cloudy with Rain 60 15.6 60 15.5 99 99 ESE 10 17 29.88 1012 5 8.0467 0.11 2.794
1:55 am 01:55 Cloudy with Rain 60 15.5 60 15.3 99 99 SSE 13 20 29.88 1012 5 8.0467 0.21 5.334
2:15 am 02:15 Cloudy with Rain 60 15.3 59 15.2 99 99 SE 7 11 29.91 1013 5 8.0467 0.1 2.54
2:35 am 02:35 Cloudy with Light Rain 59 15.2 59 15.2 100 100 ESE 6 9 29.91 1013 10 16.0934 0.14 3.556
2:55 am 02:55 Cloudy with Light Rain 59 15.1 59 15.1 100 100 E 5 7 29.85 1011 7 11.26538 0.16 4.064
3:15 am 03:15 Cloudy with Rain 59 15.1 59 15.1 100 100 NE 8 13 29.85 1011 7 11.26538 0.01 0.254
3:35 am 03:35 Cloudy with Light Rain 59 15 59 15 100 100 NE 12 19 29.88 1012 7 11.26538 0.03 0.762
3:55 am 03:55 Cloudy with Light Rain 59 15 59 15 100 100 NE 10 17 29.88 1012 7 11.26538 0.06 1.524
4:15 am 04:15 Cloudy with Light Rain 59 15 59 15 100 100 NE 9 15 29.83 1010 7 11.26538 0.01 0.254
4:35 am 04:35 Cloudy with Light Rain 59 15 59 15 100 100 NE 12 19 29.83 1010 10 16.0934 0.01 0.254
4:55 am 04:55 Cloudy 59 15.1 59 15.1 100 100 NE 12 19 29.83 1010 7 11.26538 0.01 0.254
5:15 am 05:15 Cloudy 59 15.1 59 15.1 100 100 ENE 10 17 29.83 1010 7 11.26538 0 0
5:35 am 05:35 Cloudy 59 15.1 59 15.1 100 100 NE 13 20 29.83 1010 10 16.0934 0 0
5:55 am 05:55 Cloudy 59 15.1 59 15.1 100 100 NE 12 19 29.83 1010 10 16.0934 0 0
6:15 am 06:15 Cloudy 59 15 59 15 100 100 NE 10 17 29.83 1010 10 16.0934 0 0
6:35 am 06:35 Cloudy with Light Rain 59 15 59 15 100 100 ENE 7 11 29.88 1012 10 16.0934 0 0
6:55 am 06:55 Cloudy with Rain 59 15.1 59 15.1 100 100 ENE 8 13 29.85 1011 10 16.0934 0.02 0.508
7:15 am 07:15 Cloudy with Light Rain 59 15.1 59 15.1 100 100 E 9 15 29.85 1011 5 8.0467 0.02 0.508
7:35 am 07:35 Cloudy with Drizzle 59 15.1 59 15.1 100 100 E 9 15 29.85 1011 4 6.43736 0.03 0.762
7:55 am 07:55 Cloudy with Drizzle 59 15.1 59 15.1 100 100 E 9 15 29.83 1010 4 6.43736 0.03 0.762
8:15 am 08:15 Cloudy with Drizzle 59 15.1 59 15.1 100 100 ENE 6 9 29.85 1011 5 8.0467 0 0
8:35 am 08:35 Cloudy with Heavy Rain 57 13.8 57 13.8 100 100 N 13 20 29.88 1012 2.5 4.02335 0.11 2.794
8:55 am 08:55 Cloudy with Light Rain 56 13.3 56 13.3 100 100 NNE 16 26 29.88 1012 5 8.0467 0.16 4.064
9:15 am 09:15 Cloudy with Light Rain 56 13.1 56 13.1 100 100 NNE 17 28 29.88 1012 10 16.0934 0.01 0.254
9:35 am 09:35 Cloudy with Light Rain 55 12.9 55 12.9 100 100 NNE 17 28 29.88 1012 10 16.0934 0.01 0.254
9:55 am 09:55 Cloudy 54 12.3 54 12.3 100 100 NNE 18 30 29.88 1012 10 16.0934 0.01 0.254
10:15 am 10:15 Cloudy 53 11.6 53 11.5 99 99 NE 16 26 29.94 1014 10 16.0934 0 0
10:35 am 10:35 Cloudy 52 11.3 52 11.2 99 99 NNE 16 26 29.94 1014 10 16.0934 0 0
10:55 am 10:55 Cloudy 51 10.8 51 10.6 99 99 NNE 17 28 29.94 1014 10 16.0934 0 0
11:15 am 11:15 Cloudy 51 10.5 50 10.2 98 98 NNE 20 31 29.97 1015 10 16.0934 0 0
11:35 am 11:35 Cloudy with Light Rain 51 10.5 50 10.1 97 97 NNE 13 20 29.97 1015 10 16.0934 0 0
11:55 am 11:55 Cloudy 50 10.2 50 10 99 99 NNE 18 30 30 1016 10 16.0934 0 0
12:15 pm 12:15 Cloudy 50 10.1 50 9.8 98 98 NNE 16 26 30 1016 10 16.0934 0 0
12:35 pm 12:35 Cloudy 50 10.1 50 9.8 98 98 NNE 17 28 30 1016 10 16.0934 0 0
12:55 pm 12:55 Cloudy 51 10.4 50 10.1 98 98 NNE 14 22 30 1016 10 16.0934 0 0
1:15 pm 13:15 Cloudy 50 10.1 50 9.8 98 98 NE 16 26 30 1016 10 16.0934 0 0
1:35 pm 13:35 Cloudy 50 10.2 49 9.7 97 97 NE 15 24 30 1016 10 16.0934 0 0
1:55 pm 13:55 Cloudy 50 10.1 50 10 99 99 NNE 16 26 30 1016 10 16.0934 0 0
2:15 pm 14:15 Cloudy 50 9.8 49 9.6 99 99 NNE 15 24 30 1016 10 16.0934 0 0
2:35 pm 14:35 Cloudy 50 10 49 9.6 97 97 NE 17 28 30 1016 10 16.0934 0 0
2:55 pm 14:55 Cloudy 50 9.9 49 9.5 97 97 NNE 16 26 30 1016 10 16.0934 0 0
3:15 pm 15:15 Cloudy with Light Rain 50 9.9 49 9.7 99 99 NNE 18 30 30 1016 7 11.26538 0 0
3:35 pm 15:35 Cloudy 50 10 50 10 100 100 NNE 17 28 29.97 1015 7 11.26538 0 0
3:55 pm 15:55 Cloudy 50 10.2 50 9.9 98 98 NNE 20 31 29.97 1015 10 16.0934 0 0
4:15 pm 16:15 Cloudy 50 10.2 49 9.6 96 96 NE 21 33 29.97 1015 10 16.0934 0 0
4:35 pm 16:35 Cloudy 50 10 49 9.7 98 98 NNE 17 28 30 1016 10 16.0934 0 0
4:55 pm 16:55 Cloudy 50 10 49 9.6 97 97 NNE 21 33 30 1016 10 16.0934 0 0
5:15 pm 17:15 Cloudy 50 10.1 50 9.8 98 98 NNE 20 31 30 1016 10 16.0934 0 0
5:35 pm 17:35 Cloudy 50 9.8 49 9.5 98 98 NNE 18 30 30 1016 7 11.26538 0 0
5:55 pm 17:55 Cloudy with Mist and Fog 49 9.7 49 9.3 97 97 NE 20 31 30 1016 5 8.0467 0 0
6:15 pm 18:15 Cloudy 49 9.7 49 9.3 97 97 NE 21 33 30 1016 7 11.26538 0 0
6:35 pm 18:35 Cloudy 49 9.7 49 9.2 97 97 NNE 18 30 30 1016 10 16.0934 0 0
6:55 pm 18:55 Cloudy 49 9.6 48 9.1 97 97 NE 16 26 30.03 1017 10 16.0934 0 0
7:15 pm 19:15 Cloudy 49 9.7 49 9.2 97 97 NE 18 30 30 1016 10 16.0934 0 0
7:35 pm 19:35 Cloudy 49 9.7 48 9 95 95 NE 17 28 30 1016 10 16.0934 0 0
7:55 pm 19:55 Cloudy 49 9.6 48 9.1 97 97 NNE 17 28 30.03 1017 10 16.0934 0 0
8:15 pm 20:15 Cloudy with Drizzle 49 9.5 48 9 97 97 NNE 10 17 30.09 1019 10 16.0934 0 0
8:35 pm 20:35 Cloudy with Drizzle 49 9.5 48 9.1 97 97 NNE 12 19 30.09 1019 10 16.0934 0 0
8:55 pm 20:55 Cloudy 49 9.5 49 9.3 99 99 NNE 10 17 30.09 1019 10 16.0934 0 0
9:15 pm 21:15 Cloudy with Rain 49 9.5 49 9.4 99 99 N 13 20 30.09 1019 10 16.0934 0.01 0.254
9:35 pm 21:35 Cloudy with Rain 49 9.5 49 9.5 100 100 N 9 15 30.09 1019 10 16.0934 0.03 0.762
9:55 pm 21:55 Cloudy with Light Rain 49 9.5 49 9.5 100 100 N 9 15 30.12 1020 10 16.0934 0.06 1.524
10:15 pm 22:15 Cloudy with Drizzle 49 9.5 49 9.5 100 100 N 7 11 30.12 1020 10 16.0934 0.01 0.254
10:35 pm 22:35 Cloudy with Drizzle 49 9.3 49 9.3 100 100 N 8 13 30.12 1020 5 8.0467 0.03 0.762
10:55 pm 22:55 Cloudy with Drizzle 49 9.5 49 9.5 100 100 N 7 11 30.12 1020 5 8.0467 0.04 1.016
11:15 pm 23:15 Cloudy with Drizzle 49 9.5 49 9.5 100 100 N 6 9 30.15 1021 4 6.43736 0.02 0.508
11:35 pm 23:35 Cloudy with Rain 49 9.6 49 9.6 100 100 NNW 7 11 30.15 1021 5 8.0467 0.02 0.508
11:55 pm 23:55 Cloudy with Light Rain 49 9.5 49 9.5 100 100 N 5 7 30.15 1021 5 8.0467 0.07 1.778

Powered by AerisWeather